Location: Koussan�
(15.2012°N, 12.5548°W)
Time: 17:57:44
(UTC+00:00)

Aureole 3 Rocket - Pass Details

Date: 20 October 2020
Orbit: 399 x 1739 km, 82.5° (Epoch: 30 November)

Event Time Altitude Azimuth Distance (km) Brightness Sun altitude
Rises 18:52:35 0° 156° (SSE) 2,334 5.9 -7.0°
Reaches altitude 10° 18:55:04 10° 133° (SE) 1,442 4.6 -7.6°
Maximum altitude 18:57:05 17° 91° (E) 1,119 3.8 -8.1°
Drops below altitude 10° 18:59:10 10° 48° (NE) 1,491 4.5 -8.6°
Sets 19:01:47 0° 27° (NNE) 2,455 5.8 -9.2°
